FW1460 Somerset MA US current weather conditions

sailwx.info

Wind from 278 at 0 knots gusting 6

Air temperature -0.6° C
Dewpoint -6.7° C

Last reported at 2019-Dec-12 18:05 UTC.
Time now 2019-Dec-12 19:01 UTC

Location: N 41°46' W 071°09'.
View on Google Maps.

See reports from other nearby stations

  
Tides and Currents Weather Stations Pressure Air Temp Water Temp Dewpoint Dewpoint Depression Visibility Wind Speed Wind Dir Waves Ship Positions
date/time (UTC)wind fromknots sea level pressurealtimeterstation pressurevisibilityair tempwater tempwave heightnotes
2019-Dec-12 18:05 278 0 gusting 6 -0.6
2019-Dec-12 17:49 324 2 gusting 7 -1.1
2019-Dec-12 17:33 344 2 gusting 6 -1.1
2019-Dec-12 17:17 355 2 gusting 6 -0.6
2019-Dec-12 17:03 335 1 gusting 5 -0.0
2019-Dec-12 16:48 312 0 gusting 5 -0.6
2019-Dec-12 16:32 344 1 gusting 9 -1.1
2019-Dec-12 16:16 360 0 gusting 5 -1.1
2019-Dec-12 16:02 306 1 gusting 9 -1.1
2019-Dec-12 15:46 300 1 gusting 5 -0.6
2019-Dec-12 15:32 005 1 gusting 5 -1.7
2019-Dec-12 15:16 314 1 gusting 7 -1.7
2019-Dec-12 15:00 265 4 gusting 9 -2.2
2019-Dec-12 14:47 355 1 gusting 3 -2.2
2019-Dec-12 14:30 319 1 gusting 3 -2.8
2019-Dec-12 14:18 355 1 gusting 5 -3.3
2019-Dec-12 14:00 282 1 gusting 5 -3.9
2019-Dec-12 13:45 295 1 gusting 3 -4.4
2019-Dec-12 13:31 334 1 gusting 6 -5.0
2019-Dec-12 13:15 321 1 gusting 5 -5.6
2019-Dec-12 13:00 311 1 gusting 5 -6.1
2019-Dec-12 12:45 305 0 gusting 4 -6.7
2019-Dec-12 12:30 340 0 gusting 5 -6.7
2019-Dec-12 12:15 329 1 gusting 4 -6.7
2019-Dec-12 12:00 323 -6.7
2019-Dec-12 11:32 336 0 gusting 6 -6.7
2019-Dec-12 11:18 348 1 gusting 5 -6.7
2019-Dec-12 11:02 331 -6.7
2019-Dec-12 10:46 331 0 gusting 6 -6.1
2019-Dec-12 10:31 314 0 gusting 4 -6.1
2019-Dec-12 10:17 355 -6.1
2019-Dec-12 10:02 014 1 gusting 5 -6.1
2019-Dec-12 09:48 331 1 gusting 5 -6.7
2019-Dec-12 09:31 281 -6.7
2019-Dec-12 09:17 271 -6.1
2019-Dec-12 09:01 305 -6.1
2019-Dec-12 08:46 355 1 gusting 3 -5.6
2019-Dec-12 08:30 319 1 gusting 6 -5.6
2019-Dec-12 08:16 306 0 gusting 6 -5.0
2019-Dec-12 07:45 336 0 gusting 7 -5.0
2019-Dec-12 07:30 323 0 gusting 7 -5.0
2019-Dec-12 07:00 294 -4.4
2019-Dec-12 06:45 304 -4.4
2019-Dec-12 06:30 304 0 gusting 7 -4.4
2019-Dec-12 06:03 269 -5.0
2019-Dec-12 05:48 309 -5.0
2019-Dec-12 05:32 278 -5.0
2019-Dec-12 05:17 201 -4.4
2019-Dec-12 05:02 201 -4.4
2019-Dec-12 04:46 201 -4.4
2019-Dec-12 04:33 201 -3.9
2019-Dec-12 04:17 200 -3.9
2019-Dec-12 04:02 200 0 gusting 1 -3.3
2019-Dec-12 03:47 213 -3.3
2019-Dec-12 03:32 192 -3.3
2019-Dec-12 03:17 184 -3.3
2019-Dec-12 03:02 198 -3.9
2019-Dec-12 02:46 200 -3.9
2019-Dec-12 02:33 200 -3.9
2019-Dec-12 02:17 215 -4.4
2019-Dec-12 02:01 283 -5.0
2019-Dec-12 01:46 305 -5.0
2019-Dec-12 01:31 305 -5.0
2019-Dec-12 01:15 305 -5.0
2019-Dec-12 01:01 305 -5.0
2019-Dec-12 00:45 305 -5.0
2019-Dec-12 00:30 305 -5.0
2019-Dec-11 23:45 305 -5.0
2019-Dec-11 23:30 305 -5.0
2019-Dec-11 23:15 305 -4.4
2019-Dec-11 23:00 305 -4.4
2019-Dec-11 22:47 305 -3.9
2019-Dec-11 22:31 305 -3.9
2019-Dec-11 22:17 305 -3.3
2019-Dec-11 22:02 305 -2.8
2019-Dec-11 21:46 305 -2.2
2019-Dec-11 21:33 305 -1.7
2019-Dec-11 21:17 305 -1.7
2019-Dec-11 21:02 306 -1.1
2019-Dec-11 20:46 315 -0.6
2019-Dec-11 20:30 329 -0.0
2019-Dec-11 20:15 220 0.6
2019-Dec-11 20:00 317 0.6
2019-Dec-11 19:45 278 1.1
2019-Dec-11 19:30 232 1.1
2019-Dec-11 19:16 232 1.1
2019-Dec-11 19:01 240 1.1
2019-Dec-11 18:46 273 0 gusting 3 1.1
2019-Dec-11 18:32 302 1.1
2019-Dec-11 18:17 283 1.1
2019-Dec-11 18:03 015 0.6
2019-Dec-11 17:46 318 -0.0
2019-Dec-11 17:33 304 -0.0
2019-Dec-11 17:17 323 -0.0
2019-Dec-11 17:01 274 -0.6
2019-Dec-11 16:47 269 -1.1
2019-Dec-11 16:32 325 -1.7
2019-Dec-11 16:17 305 -1.7
2019-Dec-11 16:03 315 -1.7
2019-Dec-11 15:46 285 -1.7
2019-Dec-11 15:31 285 -2.2
2019-Dec-11 15:18 283 -2.2
2019-Dec-11 15:01 232 -2.2
2019-Dec-11 14:47 306 -2.2
2019-Dec-11 14:32 309 -2.2
2019-Dec-11 14:16 306 -2.2
2019-Dec-11 14:02 298 0 gusting 2 -2.2
2019-Dec-11 13:47 250 -1.7
2019-Dec-11 13:31 321 -1.7
2019-Dec-11 13:17 275 -1.7
2019-Dec-11 13:01 351 -1.7
2019-Dec-11 12:46 351 -1.7
2019-Dec-11 12:31 355 -1.7
2019-Dec-11 12:16 336 1 gusting 5 -1.7
2019-Dec-11 12:00 026 2 gusting 5 -1.1
2019-Dec-11 11:47 355 1 gusting 5 -1.1
2019-Dec-11 11:30 355 1 gusting 10 -1.1
2019-Dec-11 11:15 005 6 gusting 11 -0.6
2019-Dec-11 11:00 005 -0.0
2019-Dec-11 10:45 355 -0.0
2019-Dec-11 10:30 360 4 gusting 11 -0.0
2019-Dec-11 10:00 344 0 gusting 4 0.6
2019-Dec-11 09:45 360 3 gusting 8 0.6
2019-Dec-11 09:30 355 0.6
2019-Dec-11 09:17 348 1.1
2019-Dec-11 09:02 344 0 gusting 3 1.1
2019-Dec-11 08:47 346 1.7
2019-Dec-11 08:32 300 1.7
2019-Dec-11 08:17 313 2.2
2019-Dec-11 08:01 263 2.2
2019-Dec-11 07:47 316 2.8
2019-Dec-11 07:31 303 2.8
2019-Dec-11 07:16 325 1 gusting 5 3.3
2019-Dec-11 07:01 281 3.3
2019-Dec-11 06:47 292 3.3
2019-Dec-11 06:31 296 3.9
2019-Dec-11 06:16 307 3.9
2019-Dec-11 06:00 307 3.9
2019-Dec-11 05:46 314 4.4
2019-Dec-11 05:30 308 4.4
2019-Dec-11 05:15 292 4.4
2019-Dec-11 05:00 292 0 gusting 4 5.0
2019-Dec-11 04:47 321 0 gusting 5 5.0
2019-Dec-11 04:32 013 0 gusting 4 5.6
2019-Dec-11 04:16 331 6.1
2019-Dec-11 04:03 333 0 gusting 6 6.1
2019-Dec-11 03:46 279 1 gusting 6 6.1
2019-Dec-11 03:32 332 0 gusting 5 6.7
2019-Dec-11 03:17 300 0 gusting 7 6.7
2019-Dec-11 03:00 302 3 gusting 8 6.7
2019-Dec-11 02:47 019 0 gusting 4 7.2
2019-Dec-11 02:31 335 0 gusting 9 7.2
2019-Dec-11 02:16 295 0 gusting 6 7.2
2019-Dec-11 02:01 329 1 gusting 7 7.2
2019-Dec-11 01:45 326 2 gusting 10 7.8
2019-Dec-11 01:30 305 2 gusting 11 8.9
2019-Dec-11 01:03 198 1 gusting 6 11.1
2019-Dec-11 00:48 198 2 gusting 7 11.1
2019-Dec-11 00:33 215 2 gusting 6 11.1
2019-Dec-11 00:17 230 1 gusting 6 11.1
2019-Dec-11 00:01 196 2 gusting 6 11.1
2019-Dec-10 23:48 196 1 gusting 6 11.1
2019-Dec-10 23:32 208 3 gusting 7 11.1
2019-Dec-10 23:03 213 5 gusting 8 11.7
2019-Dec-10 22:45 218 3 gusting 12 11.7
2019-Dec-10 22:30 206 4 gusting 8 11.7
2019-Dec-10 22:16 215 3 gusting 9 11.7
2019-Dec-10 22:02 201 3 gusting 10 11.7
2019-Dec-10 21:45 200 4 gusting 8 11.7
2019-Dec-10 21:30 221 4 gusting 8 11.7
2019-Dec-10 21:15 171 3 gusting 7 11.7
2019-Dec-10 20:48 211 4 gusting 8 11.7
2019-Dec-10 20:31 209 4 gusting 8 12.2
2019-Dec-10 20:17 189 3 gusting 8 12.2
2019-Dec-10 20:02 205 1 gusting 4 12.2
2019-Dec-10 19:47 200 2 gusting 5 12.2
2019-Dec-10 19:31 220 3 gusting 6 12.2
2019-Dec-10 19:18 202 2 gusting 8 12.2
2019-Dec-10 19:01 198 5 gusting 8 12.8